Year,Month,Day,Hour,Minute,Value (Times are PST for temperature in C)
2019,05,30,00,00,12.90
2019,05,30,00,01,12.90
2019,05,30,00,02,12.80
2019,05,30,00,03,12.80
2019,05,30,00,04,12.80
2019,05,30,00,05,12.70
2019,05,30,00,06,12.70
2019,05,30,00,07,12.60
2019,05,30,00,08,12.60
2019,05,30,00,09,12.50
2019,05,30,00,10,12.50
2019,05,30,00,11,12.40
2019,05,30,00,12,12.30
2019,05,30,00,13,12.30
2019,05,30,00,14,12.20
2019,05,30,00,15,12.20
2019,05,30,00,16,12.10
2019,05,30,00,17,12.10
2019,05,30,00,18,12.00
2019,05,30,00,19,12.00
2019,05,30,00,20,11.90
2019,05,30,00,21,11.90
2019,05,30,00,22,11.80
2019,05,30,00,23,11.80
2019,05,30,00,24,11.80
2019,05,30,00,25,11.70
2019,05,30,00,26,11.70
2019,05,30,00,27,11.60
2019,05,30,00,28,11.60
2019,05,30,00,29,11.50
2019,05,30,00,30,11.40
2019,05,30,00,31,11.40
2019,05,30,00,32,11.30
2019,05,30,00,33,11.30
2019,05,30,00,34,11.30
2019,05,30,00,35,11.20
2019,05,30,00,36,11.20
2019,05,30,00,37,11.20
2019,05,30,00,38,11.10
2019,05,30,00,39,11.10
2019,05,30,00,40,11.00
2019,05,30,00,41,11.00
2019,05,30,00,42,10.90
2019,05,30,00,43,10.90
2019,05,30,00,44,10.90
2019,05,30,00,45,10.80
2019,05,30,00,46,10.80
2019,05,30,00,47,10.80
2019,05,30,00,48,10.80
2019,05,30,00,49,10.70
2019,05,30,00,50,10.70
2019,05,30,00,51,10.70
2019,05,30,00,52,10.60
2019,05,30,00,53,10.60
2019,05,30,00,54,10.60
2019,05,30,00,55,10.60
2019,05,30,00,56,10.50
2019,05,30,00,57,10.50
2019,05,30,00,58,10.40
2019,05,30,00,59,10.40
2019,05,30,01,00,10.40
2019,05,30,01,01,10.30
2019,05,30,01,02,10.30
2019,05,30,01,03,10.30
2019,05,30,01,04,10.30
2019,05,30,01,05,10.20
2019,05,30,01,06,10.20
2019,05,30,01,07,10.20
2019,05,30,01,08,10.20
2019,05,30,01,09,10.10
2019,05,30,01,10,10.10
2019,05,30,01,11,10.10
2019,05,30,01,12,10.00
2019,05,30,01,13,10.00
2019,05,30,01,14,10.00
2019,05,30,01,15,10.00
2019,05,30,01,16,10.00
2019,05,30,01,17,10.00
2019,05,30,01,18,10.00
2019,05,30,01,19,9.90
2019,05,30,01,20,9.90
2019,05,30,01,21,9.90
2019,05,30,01,22,9.90
2019,05,30,01,23,9.90
2019,05,30,01,24,9.90
2019,05,30,01,25,9.80
2019,05,30,01,26,9.80
2019,05,30,01,27,9.80
2019,05,30,01,28,9.80
2019,05,30,01,29,9.80
2019,05,30,01,30,9.80
2019,05,30,01,31,9.80
2019,05,30,01,32,9.70
2019,05,30,01,33,9.70
2019,05,30,01,34,9.70
2019,05,30,01,35,9.70
2019,05,30,01,36,9.70
2019,05,30,01,37,9.60
2019,05,30,01,38,9.60
2019,05,30,01,39,9.60
2019,05,30,01,40,9.60
2019,05,30,01,41,9.50
2019,05,30,01,42,9.50
2019,05,30,01,43,9.50
2019,05,30,01,44,9.40
2019,05,30,01,45,9.40
2019,05,30,01,46,9.40
2019,05,30,01,47,9.40
2019,05,30,01,48,9.40
2019,05,30,01,49,9.40
2019,05,30,01,50,9.40
2019,05,30,01,51,9.30
2019,05,30,01,52,9.30
2019,05,30,01,53,9.30
2019,05,30,01,54,9.30
2019,05,30,01,55,9.30
2019,05,30,01,56,9.30
2019,05,30,01,57,9.30
2019,05,30,01,58,9.20
2019,05,30,01,59,9.20
2019,05,30,02,00,9.20
2019,05,30,02,01,9.20
2019,05,30,02,02,9.20
2019,05,30,02,03,9.20
2019,05,30,02,04,9.20
2019,05,30,02,05,9.20
2019,05,30,02,06,9.20
2019,05,30,02,07,9.10
2019,05,30,02,08,9.10
2019,05,30,02,09,9.10
2019,05,30,02,10,9.10
2019,05,30,02,11,9.10
2019,05,30,02,12,9.00
2019,05,30,02,13,9.00
2019,05,30,02,14,9.00
2019,05,30,02,15,9.00
2019,05,30,02,16,9.00
2019,05,30,02,17,9.00
2019,05,30,02,18,9.00
2019,05,30,02,19,9.00
2019,05,30,02,20,9.00
2019,05,30,02,21,9.00
2019,05,30,02,22,9.00
2019,05,30,02,23,9.00
2019,05,30,02,24,9.00
2019,05,30,02,25,9.00
2019,05,30,02,26,9.00
2019,05,30,02,27,9.00
2019,05,30,02,28,9.10
2019,05,30,02,29,9.10
2019,05,30,02,30,9.10
2019,05,30,02,31,9.10
2019,05,30,02,32,9.10
2019,05,30,02,33,9.10
2019,05,30,02,34,9.10
2019,05,30,02,35,9.10
2019,05,30,02,36,9.10
2019,05,30,02,37,9.10
2019,05,30,02,38,9.10
2019,05,30,02,39,9.10
2019,05,30,02,40,9.10
2019,05,30,02,41,9.20
2019,05,30,02,42,9.20
2019,05,30,02,43,9.20
2019,05,30,02,44,9.20
2019,05,30,02,45,9.20
2019,05,30,02,46,9.20
2019,05,30,02,47,9.20
2019,05,30,02,48,9.20
2019,05,30,02,49,9.20
2019,05,30,02,50,9.20
2019,05,30,02,51,9.20
2019,05,30,02,52,9.20
2019,05,30,02,53,9.20
2019,05,30,02,54,9.20
2019,05,30,02,55,9.30
2019,05,30,02,56,9.30
2019,05,30,02,57,9.30
2019,05,30,02,58,9.30
2019,05,30,02,59,9.20
2019,05,30,03,00,9.20
2019,05,30,03,01,9.20
2019,05,30,03,02,9.20
2019,05,30,03,03,9.20
2019,05,30,03,04,9.20
2019,05,30,03,05,9.20
2019,05,30,03,06,9.20
2019,05,30,03,07,9.20
2019,05,30,03,08,9.20
2019,05,30,03,09,9.20
2019,05,30,03,10,9.20
2019,05,30,03,11,9.10
2019,05,30,03,12,9.10
2019,05,30,03,13,9.10
2019,05,30,03,14,9.10
2019,05,30,03,15,9.10
2019,05,30,03,16,9.10
2019,05,30,03,17,9.10
2019,05,30,03,18,9.10
2019,05,30,03,19,9.10
2019,05,30,03,20,9.10
2019,05,30,03,21,9.10
2019,05,30,03,22,9.10
2019,05,30,03,23,9.10
2019,05,30,03,24,9.10
2019,05,30,03,25,9.10
2019,05,30,03,26,9.10
2019,05,30,03,27,9.10
2019,05,30,03,28,9.10
2019,05,30,03,29,9.10
2019,05,30,03,30,9.00
2019,05,30,03,31,9.00
2019,05,30,03,32,9.00
2019,05,30,03,33,9.00
2019,05,30,03,34,9.00
2019,05,30,03,35,9.00
2019,05,30,03,36,9.00
2019,05,30,03,37,9.00
2019,05,30,03,38,9.00
2019,05,30,03,39,9.00
2019,05,30,03,40,9.00
2019,05,30,03,41,9.00
2019,05,30,03,42,9.00
2019,05,30,03,43,9.00
2019,05,30,03,44,8.90
2019,05,30,03,45,8.90
2019,05,30,03,46,8.90
2019,05,30,03,47,8.90
2019,05,30,03,48,8.90
2019,05,30,03,49,8.90
2019,05,30,03,50,8.90
2019,05,30,03,51,8.90
2019,05,30,03,52,8.90
2019,05,30,03,53,8.90
2019,05,30,03,54,8.90
2019,05,30,03,55,8.90
2019,05,30,03,56,8.80
2019,05,30,03,57,8.80
2019,05,30,03,58,8.80
2019,05,30,03,59,8.80
2019,05,30,04,00,8.80
2019,05,30,04,01,8.80
2019,05,30,04,02,8.80
2019,05,30,04,03,8.80
2019,05,30,04,04,8.80
2019,05,30,04,05,8.90
2019,05,30,04,06,8.90
2019,05,30,04,07,8.90
2019,05,30,04,08,8.90
2019,05,30,04,09,8.90
2019,05,30,04,10,8.90
2019,05,30,04,11,8.90
2019,05,30,04,12,8.90
2019,05,30,04,13,8.90
2019,05,30,04,14,8.90
2019,05,30,04,15,8.90
2019,05,30,04,16,8.90
2019,05,30,04,17,8.90
2019,05,30,04,18,8.90
2019,05,30,04,19,8.90
2019,05,30,04,20,8.90
2019,05,30,04,21,8.90
2019,05,30,04,22,8.90
2019,05,30,04,23,8.80
2019,05,30,04,24,8.80
2019,05,30,04,25,8.80
2019,05,30,04,26,8.80
2019,05,30,04,27,8.80
2019,05,30,04,28,8.80
2019,05,30,04,29,8.80
2019,05,30,04,30,8.80
2019,05,30,04,31,8.80
2019,05,30,04,32,8.90
2019,05,30,04,33,8.90
2019,05,30,04,34,8.90
2019,05,30,04,35,8.90
2019,05,30,04,36,8.90
2019,05,30,04,37,9.00
2019,05,30,04,38,9.00
2019,05,30,04,39,9.00
2019,05,30,04,40,9.00
2019,05,30,04,41,9.00
2019,05,30,04,42,9.10
2019,05,30,04,43,9.10
2019,05,30,04,44,9.10
2019,05,30,04,45,9.10
2019,05,30,04,46,9.10
2019,05,30,04,47,9.10
2019,05,30,04,48,9.10
2019,05,30,04,49,9.10
2019,05,30,04,50,9.10
2019,05,30,04,51,9.20
2019,05,30,04,52,9.20
2019,05,30,04,53,9.20
2019,05,30,04,54,9.20
2019,05,30,04,55,9.20
2019,05,30,04,56,9.20
2019,05,30,04,57,9.20
2019,05,30,04,58,9.20
2019,05,30,04,59,9.20
2019,05,30,05,00,9.20
2019,05,30,05,01,9.20
2019,05,30,05,02,9.20
2019,05,30,05,03,9.20
2019,05,30,05,04,9.20
2019,05,30,05,05,9.20
2019,05,30,05,06,9.20
2019,05,30,05,07,9.20
2019,05,30,05,08,9.20
2019,05,30,05,09,9.20
2019,05,30,05,10,9.20
2019,05,30,05,11,9.20
2019,05,30,05,12,9.20
2019,05,30,05,13,9.20
2019,05,30,05,14,9.20
2019,05,30,05,15,9.30
2019,05,30,05,16,9.30
2019,05,30,05,17,9.30
2019,05,30,05,18,9.30
2019,05,30,05,19,9.30
2019,05,30,05,20,9.20
2019,05,30,05,21,9.20
2019,05,30,05,22,9.20
2019,05,30,05,23,9.20
2019,05,30,05,24,9.20
2019,05,30,05,25,9.10
2019,05,30,05,26,9.10
2019,05,30,05,27,9.10
2019,05,30,05,28,9.10
2019,05,30,05,29,9.10
2019,05,30,05,30,9.10
2019,05,30,05,31,9.10
2019,05,30,05,32,9.00
2019,05,30,05,33,9.00
2019,05,30,05,34,9.00
2019,05,30,05,35,9.00
2019,05,30,05,36,9.00
2019,05,30,05,37,9.00
2019,05,30,05,38,9.00
2019,05,30,05,39,9.00
2019,05,30,05,40,8.90
2019,05,30,05,41,8.90
2019,05,30,05,42,8.90
2019,05,30,05,43,8.90
2019,05,30,05,44,8.90
2019,05,30,05,45,8.90
2019,05,30,05,46,8.80
2019,05,30,05,47,8.80
2019,05,30,05,48,8.80
2019,05,30,05,49,8.80
2019,05,30,05,50,8.80
2019,05,30,05,51,8.80
2019,05,30,05,52,8.80
2019,05,30,05,53,8.80
2019,05,30,05,54,8.70
2019,05,30,05,55,8.70
2019,05,30,05,56,8.70
2019,05,30,05,57,8.70
2019,05,30,05,58,8.70
2019,05,30,05,59,8.70
2019,05,30,06,00,8.70
2019,05,30,06,01,8.70
2019,05,30,06,02,8.70
2019,05,30,06,03,8.60
2019,05,30,06,04,8.60
2019,05,30,06,05,8.60
2019,05,30,06,06,8.60
2019,05,30,06,07,8.60
2019,05,30,06,08,8.50
2019,05,30,06,09,8.50
2019,05,30,06,10,8.50
2019,05,30,06,11,8.50
2019,05,30,06,12,8.50
2019,05,30,06,13,8.40
2019,05,30,06,14,8.40
2019,05,30,06,15,8.40
2019,05,30,06,16,8.40
2019,05,30,06,17,8.40
2019,05,30,06,18,8.40
2019,05,30,06,19,8.40
2019,05,30,06,20,8.40
2019,05,30,06,21,8.40
2019,05,30,06,22,8.40
2019,05,30,06,23,8.40
2019,05,30,06,24,8.40
2019,05,30,06,25,8.40
2019,05,30,06,26,8.40
2019,05,30,06,27,8.40
2019,05,30,06,28,8.40
2019,05,30,06,29,8.40
2019,05,30,06,30,8.40
2019,05,30,06,31,8.40
2019,05,30,06,32,8.50
2019,05,30,06,33,8.50
2019,05,30,06,34,8.50
2019,05,30,06,35,8.50
2019,05,30,06,36,8.50
2019,05,30,06,37,8.50
2019,05,30,06,38,8.50
2019,05,30,06,39,8.50
2019,05,30,06,40,8.50
2019,05,30,06,41,8.50
2019,05,30,06,42,8.50
2019,05,30,06,43,8.50
2019,05,30,06,44,8.50
2019,05,30,06,45,8.50
2019,05,30,06,46,8.50
2019,05,30,06,47,8.50
2019,05,30,06,48,8.50
2019,05,30,06,49,8.50
2019,05,30,06,50,8.50
2019,05,30,06,51,8.60
2019,05,30,06,52,8.60
2019,05,30,06,53,8.60
2019,05,30,06,54,8.60
2019,05,30,06,55,8.60
2019,05,30,06,56,8.60
2019,05,30,06,57,8.60
2019,05,30,06,58,8.60
2019,05,30,06,59,8.60
2019,05,30,07,00,8.60
2019,05,30,07,01,8.60
2019,05,30,07,02,8.60
2019,05,30,07,03,8.60
2019,05,30,07,04,8.60
2019,05,30,07,05,8.60
2019,05,30,07,06,8.60
2019,05,30,07,07,8.60
2019,05,30,07,08,8.60
2019,05,30,07,09,8.60
2019,05,30,07,10,8.60
2019,05,30,07,11,8.60
2019,05,30,07,12,8.70
2019,05,30,07,13,8.70
2019,05,30,07,14,8.70
2019,05,30,07,15,8.70
2019,05,30,07,16,8.70
2019,05,30,07,17,8.70
2019,05,30,07,18,8.70
2019,05,30,07,19,8.70
2019,05,30,07,20,8.80
2019,05,30,07,21,8.80
2019,05,30,07,22,8.80
2019,05,30,07,23,8.80
2019,05,30,07,24,8.80
2019,05,30,07,25,8.80
2019,05,30,07,26,8.80
2019,05,30,07,27,8.80
2019,05,30,07,28,8.80
2019,05,30,07,29,8.80
2019,05,30,07,30,8.80
2019,05,30,07,31,8.90
2019,05,30,07,32,8.90
2019,05,30,07,33,8.90
2019,05,30,07,34,8.90
2019,05,30,07,35,8.90
2019,05,30,07,36,8.90
2019,05,30,07,37,8.90
2019,05,30,07,38,8.90
2019,05,30,07,39,8.90
2019,05,30,07,40,8.90
2019,05,30,07,41,8.90
2019,05,30,07,42,8.90
2019,05,30,07,43,8.90
2019,05,30,07,44,8.90
2019,05,30,07,45,8.90
2019,05,30,07,46,8.90
2019,05,30,07,47,8.90
2019,05,30,07,48,8.90
2019,05,30,07,49,9.00
2019,05,30,07,50,9.00
2019,05,30,07,51,9.10
2019,05,30,07,52,9.10
2019,05,30,07,53,9.20
2019,05,30,07,54,9.20
2019,05,30,07,55,9.20
2019,05,30,07,56,9.20
2019,05,30,07,57,9.30
2019,05,30,07,58,9.30
2019,05,30,07,59,9.30
2019,05,30,08,00,9.30
2019,05,30,08,01,9.30
2019,05,30,08,02,9.30
2019,05,30,08,03,9.40
2019,05,30,08,04,9.40
2019,05,30,08,05,9.40
2019,05,30,08,06,9.40
2019,05,30,08,07,9.50
2019,05,30,08,08,9.50
2019,05,30,08,09,9.50
2019,05,30,08,10,9.60
2019,05,30,08,11,9.60
2019,05,30,08,12,9.60
2019,05,30,08,13,9.60
2019,05,30,08,14,9.70
2019,05,30,08,15,9.70
2019,05,30,08,16,9.70
2019,05,30,08,17,9.70
2019,05,30,08,18,9.70
2019,05,30,08,19,9.70
2019,05,30,08,20,9.70
2019,05,30,08,21,9.70
2019,05,30,08,22,9.70
2019,05,30,08,23,9.70
2019,05,30,08,24,9.70
2019,05,30,08,25,9.70
2019,05,30,08,26,9.80
2019,05,30,08,27,9.80
2019,05,30,08,28,9.80
2019,05,30,08,29,9.80
2019,05,30,08,30,9.80
2019,05,30,08,31,9.80
2019,05,30,08,32,9.80
2019,05,30,08,33,9.90
2019,05,30,08,34,9.90
2019,05,30,08,35,9.90
2019,05,30,08,36,10.00
2019,05,30,08,37,10.00
2019,05,30,08,38,10.10
2019,05,30,08,39,10.10
2019,05,30,08,40,10.20
2019,05,30,08,41,10.20
2019,05,30,08,42,10.20
2019,05,30,08,43,10.20
2019,05,30,08,44,10.30
2019,05,30,08,45,10.30
2019,05,30,08,46,10.40
2019,05,30,08,47,10.50
2019,05,30,08,48,10.50
2019,05,30,08,49,10.60
2019,05,30,08,50,10.70
2019,05,30,08,51,10.80
2019,05,30,08,52,10.90
2019,05,30,08,53,11.00
2019,05,30,08,54,11.10
2019,05,30,08,55,11.20
2019,05,30,08,56,11.30
2019,05,30,08,57,11.30
2019,05,30,08,58,11.40
2019,05,30,08,59,11.40
2019,05,30,09,00,11.40
2019,05,30,09,01,11.40
2019,05,30,09,02,11.30
2019,05,30,09,03,11.30
2019,05,30,09,04,11.30
2019,05,30,09,05,11.30
2019,05,30,09,06,11.30
2019,05,30,09,07,11.20
2019,05,30,09,08,11.20
2019,05,30,09,09,11.20
2019,05,30,09,10,11.20
2019,05,30,09,11,11.20
2019,05,30,09,12,11.10
2019,05,30,09,13,11.10
2019,05,30,09,14,11.10
2019,05,30,09,15,11.10
2019,05,30,09,16,11.10
2019,05,30,09,17,11.10
2019,05,30,09,18,11.10
2019,05,30,09,19,11.10
2019,05,30,09,20,11.20
2019,05,30,09,21,11.20
2019,05,30,09,22,11.20
2019,05,30,09,23,11.20
2019,05,30,09,24,11.20
2019,05,30,09,25,11.30
2019,05,30,09,26,11.30
2019,05,30,09,27,11.40
2019,05,30,09,28,11.50
2019,05,30,09,29,11.60
2019,05,30,09,30,11.70
2019,05,30,09,31,11.80
2019,05,30,09,32,11.90
2019,05,30,09,33,12.00
2019,05,30,09,34,12.10
2019,05,30,09,35,12.20
2019,05,30,09,36,12.30
2019,05,30,09,37,12.30
2019,05,30,09,38,12.40
2019,05,30,09,39,12.50
2019,05,30,09,40,12.60
2019,05,30,09,41,12.70
2019,05,30,09,42,12.80
2019,05,30,09,43,12.90
2019,05,30,09,44,13.00
2019,05,30,09,45,13.10
2019,05,30,09,46,13.20
2019,05,30,09,47,13.30
2019,05,30,09,48,13.30
2019,05,30,09,49,13.40
2019,05,30,09,50,13.40
2019,05,30,09,51,13.40
2019,05,30,09,52,13.50
2019,05,30,09,53,13.50
2019,05,30,09,54,13.60
2019,05,30,09,55,13.70
2019,05,30,09,56,13.80
2019,05,30,09,57,13.80
2019,05,30,09,58,13.80
2019,05,30,09,59,13.80
2019,05,30,10,00,13.80
2019,05,30,10,01,13.80
2019,05,30,10,02,13.80
2019,05,30,10,03,13.70
2019,05,30,10,04,13.70
2019,05,30,10,05,13.60
2019,05,30,10,06,13.60
2019,05,30,10,07,13.60
2019,05,30,10,08,13.60
2019,05,30,10,09,13.50
2019,05,30,10,10,13.50
2019,05,30,10,11,13.50
2019,05,30,10,12,13.50
2019,05,30,10,13,13.50
2019,05,30,10,14,13.50
2019,05,30,10,15,13.50
2019,05,30,10,16,13.50
2019,05,30,10,17,13.50
2019,05,30,10,18,13.50
2019,05,30,10,19,13.50
2019,05,30,10,20,13.60
2019,05,30,10,21,13.60
2019,05,30,10,22,13.60
2019,05,30,10,23,13.70
2019,05,30,10,24,13.70
2019,05,30,10,25,13.70
2019,05,30,10,26,13.80
2019,05,30,10,27,13.80
2019,05,30,10,28,13.80
2019,05,30,10,29,13.90
2019,05,30,10,30,13.90
2019,05,30,10,31,14.00
2019,05,30,10,32,14.00
2019,05,30,10,33,14.00
2019,05,30,10,34,14.10
2019,05,30,10,35,14.10
2019,05,30,10,36,14.10
2019,05,30,10,37,14.20
2019,05,30,10,38,14.20
2019,05,30,10,39,14.20
2019,05,30,10,40,14.30
2019,05,30,10,41,14.30
2019,05,30,10,42,14.40
2019,05,30,10,43,14.40
2019,05,30,10,44,14.50
2019,05,30,10,45,14.50
2019,05,30,10,46,14.60
2019,05,30,10,47,14.70
2019,05,30,10,48,14.70
2019,05,30,10,49,14.80
2019,05,30,10,50,14.90
2019,05,30,10,51,14.90
2019,05,30,10,52,15.00
2019,05,30,10,53,15.00
2019,05,30,10,54,15.00
2019,05,30,10,55,15.00
2019,05,30,10,56,15.00
2019,05,30,10,57,14.90
2019,05,30,10,58,15.00
2019,05,30,10,59,15.00
2019,05,30,11,00,15.10
2019,05,30,11,01,15.10
2019,05,30,11,02,15.20
2019,05,30,11,03,15.20
2019,05,30,11,04,15.30
2019,05,30,11,05,15.30
2019,05,30,11,06,15.30
2019,05,30,11,07,15.40
2019,05,30,11,08,15.50
2019,05,30,11,09,15.60
2019,05,30,11,10,15.60
2019,05,30,11,11,15.70
2019,05,30,11,12,15.80
2019,05,30,11,13,15.80
2019,05,30,11,14,15.90
2019,05,30,11,15,16.00
2019,05,30,11,16,16.10
2019,05,30,11,17,16.20
2019,05,30,11,18,16.30
2019,05,30,11,19,16.40
2019,05,30,11,20,16.50
2019,05,30,11,21,16.60
2019,05,30,11,22,16.70
2019,05,30,11,23,16.70
2019,05,30,11,24,16.80
2019,05,30,11,25,16.80
2019,05,30,11,26,16.90
2019,05,30,11,27,16.90
2019,05,30,11,28,16.90
2019,05,30,11,29,16.80
2019,05,30,11,30,16.90
2019,05,30,11,31,16.90
2019,05,30,11,32,16.80
2019,05,30,11,33,16.80
2019,05,30,11,34,16.80
2019,05,30,11,35,16.70
2019,05,30,11,36,16.70
2019,05,30,11,37,16.70
2019,05,30,11,38,16.60
2019,05,30,11,39,16.60
2019,05,30,11,40,16.60
2019,05,30,11,41,16.60
2019,05,30,11,42,16.60
2019,05,30,11,43,16.60
2019,05,30,11,44,16.70
2019,05,30,11,45,16.70
2019,05,30,11,46,16.70
2019,05,30,11,47,16.70
2019,05,30,11,48,16.80
2019,05,30,11,49,16.80
2019,05,30,11,50,16.90
2019,05,30,11,51,16.90
2019,05,30,11,52,17.00
2019,05,30,11,53,17.10
2019,05,30,11,54,17.10
2019,05,30,11,55,17.20
2019,05,30,11,56,17.20
2019,05,30,11,57,17.30
2019,05,30,11,58,17.50
2019,05,30,11,59,17.60
2019,05,30,12,00,17.70
2019,05,30,12,01,17.80
2019,05,30,12,02,17.90
2019,05,30,12,03,18.00
2019,05,30,12,04,18.00
2019,05,30,12,05,18.10
2019,05,30,12,06,18.10
2019,05,30,12,07,18.20
2019,05,30,12,08,18.30
2019,05,30,12,09,18.30
2019,05,30,12,10,18.40
2019,05,30,12,11,18.60
2019,05,30,12,12,18.70
2019,05,30,12,13,18.70
2019,05,30,12,14,18.80
2019,05,30,12,15,18.90
2019,05,30,12,16,19.00
2019,05,30,12,17,19.00
2019,05,30,12,18,19.10
2019,05,30,12,19,19.20
2019,05,30,12,20,19.30
2019,05,30,12,21,19.30
2019,05,30,12,22,19.40
2019,05,30,12,23,19.50
2019,05,30,12,24,19.50
2019,05,30,12,25,19.60
2019,05,30,12,26,19.60
2019,05,30,12,27,19.70
2019,05,30,12,28,19.80
2019,05,30,12,29,19.90
2019,05,30,12,30,20.00
2019,05,30,12,31,20.20
2019,05,30,12,32,20.20
2019,05,30,12,33,20.30
2019,05,30,12,34,20.30
2019,05,30,12,35,20.40
2019,05,30,12,36,20.50
2019,05,30,12,37,20.60
2019,05,30,12,38,20.50
2019,05,30,12,39,20.50
2019,05,30,12,40,20.40
2019,05,30,12,41,20.40
2019,05,30,12,42,20.40
2019,05,30,12,43,20.50
2019,05,30,12,44,20.60
2019,05,30,12,45,20.60
2019,05,30,12,46,20.70
2019,05,30,12,47,20.80
2019,05,30,12,48,20.80
2019,05,30,12,49,20.90
2019,05,30,12,50,20.90
2019,05,30,12,51,20.90
2019,05,30,12,52,20.90
2019,05,30,12,53,21.00
2019,05,30,12,54,21.10
2019,05,30,12,55,21.10
2019,05,30,12,56,21.20
2019,05,30,12,57,21.30
2019,05,30,12,58,21.30
2019,05,30,12,59,21.30
2019,05,30,13,00,21.30
2019,05,30,13,01,21.30
2019,05,30,13,02,21.20
2019,05,30,13,03,21.20
2019,05,30,13,04,21.20
2019,05,30,13,05,21.20
2019,05,30,13,06,21.10
2019,05,30,13,07,21.00
2019,05,30,13,08,20.80
2019,05,30,13,09,20.70
2019,05,30,13,10,20.60
2019,05,30,13,11,20.50
2019,05,30,13,12,20.50
2019,05,30,13,13,20.40
2019,05,30,13,14,20.40
2019,05,30,13,15,20.50
2019,05,30,13,16,20.50
2019,05,30,13,17,20.50
2019,05,30,13,18,20.50
2019,05,30,13,19,20.50
2019,05,30,13,20,20.40
2019,05,30,13,21,20.40
2019,05,30,13,22,20.40
2019,05,30,13,23,20.50
2019,05,30,13,24,20.50
2019,05,30,13,25,20.50
2019,05,30,13,26,20.40
2019,05,30,13,27,20.40
2019,05,30,13,28,20.40
2019,05,30,13,29,20.40
2019,05,30,13,30,20.40
2019,05,30,13,31,20.30
2019,05,30,13,32,20.30
2019,05,30,13,33,20.30
2019,05,30,13,34,20.40
2019,05,30,13,35,20.40
2019,05,30,13,36,20.30
2019,05,30,13,37,20.40
2019,05,30,13,38,20.40
2019,05,30,13,39,20.40
2019,05,30,13,40,20.40
2019,05,30,13,41,20.40
2019,05,30,13,42,20.40
2019,05,30,13,43,20.30
2019,05,30,13,44,20.30
2019,05,30,13,45,20.30
2019,05,30,13,46,20.20
2019,05,30,13,47,20.10
2019,05,30,13,48,20.10
2019,05,30,13,49,20.00
2019,05,30,13,50,20.00
2019,05,30,13,51,20.00
2019,05,30,13,52,19.90
2019,05,30,13,53,19.90
2019,05,30,13,54,19.90
2019,05,30,13,55,19.90
2019,05,30,13,56,19.90
2019,05,30,13,57,19.90
2019,05,30,13,58,19.90
2019,05,30,13,59,19.90
2019,05,30,14,00,19.80
2019,05,30,14,01,19.80
2019,05,30,14,02,19.80
2019,05,30,14,03,19.80
2019,05,30,14,04,19.80
2019,05,30,14,05,19.80
2019,05,30,14,06,19.80
2019,05,30,14,07,19.70
2019,05,30,14,08,19.70
2019,05,30,14,09,19.70
2019,05,30,14,10,19.70
2019,05,30,14,11,19.70
2019,05,30,14,12,19.60
2019,05,30,14,13,19.60
2019,05,30,14,14,19.60
2019,05,30,14,15,19.60
2019,05,30,14,16,19.60
2019,05,30,14,17,19.60
2019,05,30,14,18,19.60
2019,05,30,14,19,19.60
2019,05,30,14,20,19.60
2019,05,30,14,21,19.60
2019,05,30,14,22,19.60
2019,05,30,14,23,19.60
2019,05,30,14,24,19.60
2019,05,30,14,25,19.50
2019,05,30,14,26,19.50
2019,05,30,14,27,19.40
2019,05,30,14,28,19.40
2019,05,30,14,29,19.40
2019,05,30,14,30,19.30
2019,05,30,14,31,19.30
2019,05,30,14,32,19.20
2019,05,30,14,33,19.20
2019,05,30,14,34,19.10
2019,05,30,14,35,19.10
2019,05,30,14,36,19.10
2019,05,30,14,37,19.00
2019,05,30,14,38,19.00
2019,05,30,14,39,18.90
2019,05,30,14,40,19.00
2019,05,30,14,41,19.00
2019,05,30,14,42,19.00
2019,05,30,14,43,19.00
2019,05,30,14,44,19.00
2019,05,30,14,45,19.00
2019,05,30,14,46,19.10
2019,05,30,14,47,19.10
2019,05,30,14,48,19.10
2019,05,30,14,49,19.10
2019,05,30,14,50,19.20
2019,05,30,14,51,19.20
2019,05,30,14,52,19.20
2019,05,30,14,53,19.20
2019,05,30,14,54,19.20
2019,05,30,14,55,19.20
2019,05,30,14,56,19.20
2019,05,30,14,57,19.20
2019,05,30,14,58,19.20
2019,05,30,14,59,19.30
2019,05,30,15,00,19.30
2019,05,30,15,01,19.30
2019,05,30,15,02,19.30
2019,05,30,15,03,19.30
2019,05,30,15,04,19.40
2019,05,30,15,05,19.40
2019,05,30,15,06,19.40
2019,05,30,15,07,19.40
2019,05,30,15,08,19.40
2019,05,30,15,09,19.50
2019,05,30,15,10,19.50
2019,05,30,15,11,19.50
2019,05,30,15,12,19.50
2019,05,30,15,13,19.40
2019,05,30,15,14,19.40
2019,05,30,15,15,19.30
2019,05,30,15,16,19.30
2019,05,30,15,17,19.20
2019,05,30,15,18,19.20
2019,05,30,15,19,19.10
2019,05,30,15,20,19.10
2019,05,30,15,21,19.00
2019,05,30,15,22,19.00
2019,05,30,15,23,18.90
2019,05,30,15,24,18.90
2019,05,30,15,25,18.90
2019,05,30,15,26,18.90
2019,05,30,15,27,18.90
2019,05,30,15,28,18.80
2019,05,30,15,29,18.80
2019,05,30,15,30,18.80
2019,05,30,15,31,18.80
2019,05,30,15,32,18.80
2019,05,30,15,33,18.80
2019,05,30,15,34,18.90
2019,05,30,15,35,18.90
2019,05,30,15,36,18.90
2019,05,30,15,37,18.90
2019,05,30,15,38,18.90
2019,05,30,15,39,18.90
2019,05,30,15,40,18.90
2019,05,30,15,41,18.80
2019,05,30,15,42,18.80
2019,05,30,15,43,18.80
2019,05,30,15,44,18.80
2019,05,30,15,45,18.80
2019,05,30,15,46,18.80
2019,05,30,15,47,18.80
2019,05,30,15,48,18.80
2019,05,30,15,49,18.80
2019,05,30,15,50,18.80
2019,05,30,15,51,18.80
2019,05,30,15,52,18.80
2019,05,30,15,53,18.80
2019,05,30,15,54,18.80
2019,05,30,15,55,18.90
2019,05,30,15,56,18.90
2019,05,30,15,57,18.90
2019,05,30,15,58,18.90
2019,05,30,15,59,19.00
2019,05,30,16,00,19.00
2019,05,30,16,01,19.00
2019,05,30,16,02,19.10
2019,05,30,16,03,19.10
2019,05,30,16,04,19.20
2019,05,30,16,05,19.20
2019,05,30,16,06,19.30
2019,05,30,16,07,19.30
2019,05,30,16,08,19.30
2019,05,30,16,09,19.40
2019,05,30,16,10,19.50
2019,05,30,16,11,19.50
2019,05,30,16,12,19.60
2019,05,30,16,13,19.70
2019,05,30,16,14,19.80
2019,05,30,16,15,19.80
2019,05,30,16,16,19.90
2019,05,30,16,17,20.00
2019,05,30,16,18,20.10
2019,05,30,16,19,20.10
2019,05,30,16,20,20.20
2019,05,30,16,21,20.30
2019,05,30,16,22,20.30
2019,05,30,16,23,20.40
2019,05,30,16,24,20.40
2019,05,30,16,25,20.40
2019,05,30,16,26,20.50
2019,05,30,16,27,20.50
2019,05,30,16,28,20.50
2019,05,30,16,29,20.50
2019,05,30,16,30,20.50
2019,05,30,16,31,20.60
2019,05,30,16,32,20.60
2019,05,30,16,33,20.60
2019,05,30,16,34,20.60
2019,05,30,16,35,20.60
2019,05,30,16,36,20.70
2019,05,30,16,37,20.70
2019,05,30,16,38,20.70
2019,05,30,16,39,20.70
2019,05,30,16,40,20.70
2019,05,30,16,41,20.70
2019,05,30,16,42,20.70
2019,05,30,16,43,20.70
2019,05,30,16,44,20.70
2019,05,30,16,45,20.80
2019,05,30,16,46,20.80
2019,05,30,16,47,20.80
2019,05,30,16,48,20.90
2019,05,30,16,49,20.90
2019,05,30,16,50,21.00
2019,05,30,16,51,21.00
2019,05,30,16,52,21.00
2019,05,30,16,53,21.10
2019,05,30,16,54,21.10
2019,05,30,16,55,21.10
2019,05,30,16,56,21.10
2019,05,30,16,57,21.20
2019,05,30,16,58,21.20
2019,05,30,16,59,21.20
2019,05,30,17,00,21.30
2019,05,30,17,01,21.30
2019,05,30,17,02,21.40
2019,05,30,17,03,21.40
2019,05,30,17,04,21.50
2019,05,30,17,05,21.50
2019,05,30,17,06,21.60
2019,05,30,17,07,21.70
2019,05,30,17,08,21.70
2019,05,30,17,09,21.70
2019,05,30,17,10,21.80
2019,05,30,17,11,21.80
2019,05,30,17,12,21.80
2019,05,30,17,13,21.80
2019,05,30,17,14,21.80
2019,05,30,17,15,21.80
2019,05,30,17,16,21.80
2019,05,30,17,17,21.70
2019,05,30,17,18,21.70
2019,05,30,17,19,21.80
2019,05,30,17,20,21.70
2019,05,30,17,21,21.70
2019,05,30,17,22,21.70
2019,05,30,17,23,21.70
2019,05,30,17,24,21.70
2019,05,30,17,25,21.60
2019,05,30,17,26,21.70
2019,05,30,17,27,21.70
2019,05,30,17,28,21.70
2019,05,30,17,29,21.70
2019,05,30,17,30,21.70
2019,05,30,17,31,21.70
2019,05,30,17,32,21.70
2019,05,30,17,33,21.70
2019,05,30,17,34,21.70
2019,05,30,17,35,21.60
2019,05,30,17,36,21.60
2019,05,30,17,37,21.60
2019,05,30,17,38,21.60